[[{"header":{"parameterUnit":"m.s-1","parameterCategory":2,"la1":30.2991,"la2":30.254,"lo1":-89.0895,"lo2":-89.0444,"dy":0.0017,"dx":0.0017,"nx":28,"ny":28,"refTime":"2023-08-01T03:00:00:Z","depth":"0","parameterNumber":2,"parameterNumberName":"U-component_of_CURRENTS"},"data":[0,0,0,0,0,0,0,0,0,0,0,0,0,0,0,0,0,0,0,0,0,0,0,0,0,0,0,0,0,0,0,0,0,0,0,0,0,0,0,0,0,0,0,0,0,0,0,0,0,0,0,0,0,0,0,0,0,0,-0.3588,-0.3588,0,-0.3546,-0.3545,-0.3545,-0.3482,-0.3481,-0.3481,-0.348,-0.3389,-0.3387,-0.3385,0,0,0,0,0,0,0,0,0,0,0,0,0,-0.3348,-0.3354,-0.3588,-0.3588,-0.3588,-0.3547,-0.3545,-0.3544,-0.3482,-0.3481,-0.3481,-0.348,-0.3389,-0.3387,-0.3385,0,0,0,0,0,0,0,0,0,0,0,0,0,-0.3389,-0.3356,-0.3588,-0.3557,-0.3554,-0.3547,-0.3545,-0.3544,-0.3482,-0.3481,-0.3481,-0.348,-0.339,-0.3387,-0.3385,-0.3382,0,0,-0.3376,-0.3374,0,0,0,0,0,0,0,0,-0.3387,-0.3397,-0.3561,-0.3559,-0.3556,-0.3524,-0.3428,-0.349,-0.3482,-0.3503,-0.348,-0.3479,-0.3434,-0.3428,-0.3413,-0.3378,-0.3374,-0.3375,-0.3374,-0.3372,-0.3371,0,0,0,0,0,0,0,-0.3384,-0.3397,-0.3565,-0.3562,-0.3558,-0.3454,-0.3461,-0.3437,-0.3467,-0.3501,-0.3498,-0.3504,-0.3431,-0.3416,-0.341,-0.3372,-0.3375,-0.3373,-0.3371,-0.337,-0.3371,-0.3372,0,0,0,0,0,0,-0.3419,-0.3397,-0.3566,-0.3564,-0.3475,-0.3461,-0.3468,-0.353,-0.3469,-0.3461,-0.3504,-0.3501,-0.3421,-0.3414,-0.3407,-0.3388,-0.3372,-0.337,-0.3368,-0.3369,-0.3371,-0.3373,0,0,0,0,0,0,-0.3415,-0.3437,-0.3568,-0.3479,-0.349,-0.3469,-0.3537,-0.353,-0.3517,-0.3473,-0.3463,-0.3501,-0.3421,-0.3411,-0.3402,-0.3384,-0.3368,-0.3366,-0.3367,-0.337,-0.3372,-0.3358,0,0,0,0,0,0,-0.3409,-0.3437,-0.3477,-0.3485,-0.3497,-0.3582,-0.3538,-0.353,-0.3525,-0.352,-0.3467,-0.3457,-0.3419,-0.3407,-0.3399,-0.338,-0.3363,-0.3365,-0.3368,-0.3371,-0.3356,-0.336,-0.3363,0,0,0,0,0,-0.3401,-0.3481,-0.3481,-0.35,-0.3562,-0.3584,-0.358,-0.3553,-0.3526,-0.3535,-0.3499,-0.3459,-0.3422,-0.3406,-0.3396,-0.3376,-0.3363,-0.3367,-0.3371,-0.3355,-0.3359,-0.3363,0,0,0,0,0,0,-0.3392,-0.3483,-0.3483,-0.3585,-0.3587,-0.3577,-0.3584,-0.3562,-0.3539,-0.3533,-0.3476,-0.3465,-0.345,-0.3436,-0.3419,-0.3396,-0.3389,-0.3391,-0.338,-0.3384,-0.3387,-0.3348,-0.3361,0,0,0,0,0,-0.3415,-0.3506,-0.3537,-0.3612,-0.362,-0.3598,-0.3598,-0.3588,-0.3574,-0.3562,-0.3524,-0.3493,-0.346,-0.3441,-0.3424,-0.3407,-0.3347,-0.3397,-0.34,-0.3403,-0.3372,-0.3281,-0.327,-0.3386,-0.3386,-0.3386,0,0,-0.3428,-0.3491,-0.3538,-0.3614,-0.3611,-0.3614,-0.3595,-0.3618,-0.3599,-0.3557,-0.3525,-0.3505,-0.3465,-0.3443,-0.3435,-0.3424,-0.3345,-0.3408,-0.3409,-0.3376,-0.3283,-0.3271,-0.326,-0.3389,-0.3388,-0.3388,0,0,-0.348,-0.3558,-0.3625,-0.3634,-0.3659,-0.3646,-0.3657,-0.3654,-0.3632,-0.3622,-0.3574,-0.3546,-0.3519,-0.3463,-0.3434,-0.3453,-0.3372,-0.3465,-0.3429,-0.3342,-0.3329,-0.3317,-0.3235,-0.3216,-0.3457,-0.3457,-0.3457,0,-0.347,-0.3574,-0.3634,-0.3668,-0.3661,-0.366,-0.3664,-0.3649,-0.3636,-0.3609,-0.3624,-0.3541,-0.3516,-0.3432,-0.3436,-0.345,-0.3389,-0.3405,-0.3338,-0.3325,-0.3313,-0.3231,-0.321,-0.3457,-0.3457,-0.3457,-0.3457,0,-0.3553,-0.3603,-0.3637,-0.3682,-0.3685,-0.3702,-0.3687,-0.3683,-0.3664,-0.3631,-0.358,-0.3545,-0.3482,-0.3482,-0.3455,-0.3359,-0.3341,-0.3352,-0.3309,-0.3299,-0.3216,-0.3193,-0.3456,-0.3457,-0.3457,-0.3457,0,0,-0.3533,-0.3674,-0.366,-0.3646,-0.3689,-0.3671,-0.3679,-0.3646,-0.3587,-0.3597,-0.3505,-0.3479,-0.3447,-0.3413,-0.3375,-0.3299,-0.3174,-0.3282,-0.3278,-0.3166,-0.2966,-0.2642,-0.2587,-0.316,-0.3156,-0.3153,-0.2943,0,-0.353,-0.3591,-0.3677,-0.3644,-0.3624,-0.3653,-0.3626,-0.3599,-0.3575,-0.3493,-0.346,-0.3377,-0.3421,-0.3363,-0.3303,-0.3195,-0.3114,-0.3229,-0.3021,-0.3014,-0.2697,-0.2549,-0.2217,-0.1971,-0.2921,-0.2917,-0.2914,0,-0.3471,-0.3541,-0.3562,-0.3555,-0.3551,-0.3545,-0.3467,-0.3458,-0.3394,-0.3373,-0.3327,-0.3289,-0.3183,-0.3219,-0.3044,-0.3111,-0.3031,-0.2966,-0.2957,-0.263,-0.2645,-0.2137,-0.1895,-0.196,-0.288,-0.2883,-0.2885,0,-0.3255,-0.3365,-0.3383,-0.3394,-0.3453,-0.3446,-0.3442,-0.34,-0.3358,-0.3275,-0.3224,-0.3136,-0.3044,-0.2964,-0.2854,-0.2935,-0.2627,-0.2733,-0.2375,-0.2356,-0.2011,-0.1962,-0.176,-0.2584,-0.2584,-0.2585,-0.2585,0,-0.31,-0.307,-0.3294,-0.3267,-0.324,-0.3311,-0.3225,-0.3222,-0.3191,-0.3044,-0.313,-0.2946,-0.2969,-0.2815,-0.2764,-0.2437,-0.2559,-0.2287,-0.2234,-0.1999,-0.1954,-0.1948,-0.2132,-0.2577,-0.2579,-0.258,-0.2581,0,-0.2769,-0.2944,-0.2918,-0.3061,-0.3119,-0.305,-0.3104,-0.3041,-0.3058,-0.2871,-0.2839,-0.2775,-0.2494,-0.2487,-0.2282,-0.2246,-0.1958,-0.1901,-0.1611,-0.1521,-0.1218,-0.1415,-0.1223,-0.12,-0.1452,-0.1442,-0.1434,0,-0.2618,-0.2599,-0.2733,-0.2753,-0.2826,-0.2829,-0.284,-0.2922,-0.2866,-0.2665,-0.2543,-0.2291,-0.1929,-0.1583,-0.1423,-0.121,-0.1477,-0.0904,-0.0979,-0.1049,-0.1237,-0.1493,-0.1516,-0.0564,-0.0549,-0.0537,-0.0527,0,-0.2316,-0.2362,-0.2383,-0.2454,-0.2497,-0.251,-0.2532,-0.246,-0.2455,-0.228,-0.1878,-0.1557,-0.1134,-0.0637,-0.0453,-0.0371,-0.0868,-0.0638,-0.0782,-0.0519,-0.0716,-0.0717,-0.0922,-0.0418,-0.0429,-0.0437,-0.0443,-0.0447,-0.2082,-0.2016,-0.2095,-0.213,-0.2185,-0.2144,-0.1998,-0.1987,-0.1773,-0.1411,-0.1248,-0.0722,-0.0191,0.0253,0.0264,0.0392,0.004,0.0369,0.0132,-0.0126,-0.0056,0.0017,0.0623,0.0619,0.0615,0.0611,0.0608,0,-0.1817,-0.1806,-0.1804,-0.1817,-0.1768,-0.1892,-0.1785,-0.1574,-0.1179,-0.0897,-0.0466,0.0199,0.0809,0.0972,0.1307,0.1179,0.0859,0.096,0.0604,0.0539,0.0633,0.0727,0.1474,0.1474,0.1474,0.1474,0.1474,0.1474,-0.1688,-0.1589,-0.1614,-0.1479,-0.1464,-0.1262,-0.1108,-0.0798,-0.0556,0.0031,0.0346,0.054,0.0897,0.1438,0.1575,0.1454,0.0961,0.0977,0.0617,0.0602,0.0522,0.0445,0.0498,0.1185,0.1184,0.0678,0.0673,0.067]},{"header":{"parameterUnit":"m.s-1","parameterCategory":2,"la1":30.2991,"la2":30.254,"lo1":-89.0895,"lo2":-89.0444,"dy":0.0017,"dx":0.0017,"nx":28,"ny":28,"refTime":"2023-08-01T03:00:00:Z","depth":"0","parameterNumber":3,"parameterNumberName":"V-component_of_CURRENTS"},"data":[0,0,0,0,0,0,0,0,0,0,0,0,0,0,0,0,0,0,0,0,0,0,0,0,0,0,0,0,0,0,0,0,0,0,0,0,0,0,0,0,0,0,0,0,0,0,0,0,0,0,0,0,0,0,0,0,0,0,-0.0035,-0.0034,0,0.0117,0.0119,0.0121,0.0265,0.0267,0.0269,0.027,0.0425,0.0428,0.043,0,0,0,0,0,0,0,0,0,0,0,0,0,-0.0293,-0.0289,-0.0036,-0.0034,-0.0032,0.0117,0.0119,0.0122,0.0265,0.0267,0.0269,0.0271,0.0425,0.0428,0.0431,0,0,0,0,0,0,0,0,0,0,0,0,0,-0.0164,-0.0287,-0.0036,0.0057,0.0067,0.0117,0.0119,0.0122,0.0265,0.0267,0.027,0.0272,0.0424,0.0427,0.0431,0.0403,0,0,0.0443,0.0444,0,0,0,0,0,0,0,0,-0.0171,-0.0154,0.0041,0.0051,0.0062,0.0174,0.0085,0.0216,0.0264,0.0191,0.0271,0.0273,0.0339,0.035,0.0374,0.0411,0.0417,0.0443,0.0445,0.0447,0.0448,0,0,0,0,0,0,0,-0.018,-0.0161,0.0026,0.0043,0.0055,0.006,0.0082,0.011,0.0249,0.0197,0.0208,0.0222,0.0345,0.037,0.0379,0.0419,0.0443,0.0446,0.0449,0.045,0.0545,0.0545,0,0,0,0,0,0,-0.0199,-0.0168,0.0021,0.0031,-0.0052,0.0063,0.0087,0.0136,0.025,0.0269,0.022,0.0228,0.0363,0.0375,0.0385,0.0426,0.0447,0.045,0.0453,0.0545,0.0545,0.0545,0,0,0,0,0,0,-0.0204,-0.0182,0.0015,-0.0069,-0.0043,0.0065,0.0118,0.0138,0.0169,0.0266,0.0287,0.0231,0.0365,0.038,0.0412,0.0431,0.0452,0.0456,0.0544,0.0545,0.0545,0.0464,0,0,0,0,0,0,-0.0212,-0.0184,-0.017,-0.0069,-0.0039,0.0042,0.0116,0.0139,0.0173,0.0186,0.0282,0.0299,0.0368,0.0406,0.0416,0.0436,0.0459,0.0544,0.0545,0.0545,0.0467,0.0462,0.0458,0,0,0,0,0,-0.0221,-0.0209,-0.017,-0.0148,-0.0017,0.0041,0.0056,0.014,0.0171,0.0178,0.0242,0.0297,0.0418,0.0407,0.0419,0.0442,0.0544,0.0544,0.0545,0.0469,0.0463,0.0458,0,0,0,0,0,0,-0.0318,-0.0191,-0.0145,-0.0094,-0.0035,0.0065,0.0073,0.0122,0.0176,0.0186,0.0277,0.0297,0.035,0.0389,0.0375,0.0473,0.0498,0.0501,0.0436,0.0431,0.0427,0.04,0.0462,0,0,0,0,0,-0.0335,-0.0287,-0.018,-0.0148,-0.012,-0.0033,-0.0005,0.0052,0.0117,0.0146,0.0214,0.0287,0.0358,0.0385,0.0452,0.0469,0.0471,0.05,0.0496,0.0491,0.0479,0.0451,0.0441,0.0547,0.0547,0.0547,0,0,-0.037,-0.0293,-0.0269,-0.0167,-0.0114,-0.007,-0.0009,0.0029,0.007,0.0148,0.0205,0.0269,0.036,0.0414,0.044,0.0447,0.0467,0.0492,0.0488,0.0478,0.045,0.0439,0.043,0.0547,0.0547,0.0547,0,0,-0.0409,-0.0344,-0.0311,-0.0263,-0.0184,-0.0125,-0.0121,-0.0027,0.0021,0.0065,0.0155,0.021,0.0299,0.0378,0.0427,0.0423,0.045,0.0457,0.0404,0.0376,0.0366,0.0357,0.0356,0.0347,0.0447,0.0447,0.0447,0,-0.0458,-0.0384,-0.0306,-0.0264,-0.0239,-0.0152,-0.0133,-0.007,0.0021,0.0027,0.0075,0.0196,0.0289,0.0348,0.0383,0.0415,0.0398,0.0414,0.0365,0.0356,0.0348,0.035,0.0341,0.0443,0.0443,0.0444,0.0444,0,-0.0454,-0.0409,-0.04,-0.0301,-0.0273,-0.0251,-0.0157,-0.0133,-0.008,-0.0026,0.0024,0.0134,0.0198,0.0258,0.0335,0.0342,0.035,0.0363,0.0367,0.0332,0.0337,0.033,0.0437,0.0439,0.044,0.0441,0,0,-0.0525,-0.0415,-0.0412,-0.0393,-0.0297,-0.0279,-0.0234,-0.0187,-0.0195,-0.0099,-0.011,0.0053,0.0083,0.0142,0.0234,0.024,0.0216,0.0277,0.0277,0.0256,0.0151,0.0311,0.0319,0.0196,0.0194,0.0193,0.018,0,-0.0548,-0.0491,-0.0432,-0.0418,-0.0392,-0.0336,-0.0318,-0.0275,-0.0231,-0.0221,-0.0121,-0.0077,0.005,0.0072,0.01,0.0193,0.019,0.0219,0.0207,0.0207,0.0335,0.0314,0.045,0.0463,0.0173,0.0172,0.0171,0,-0.0552,-0.0519,-0.0493,-0.0487,-0.048,-0.047,-0.048,-0.0447,-0.041,-0.0383,-0.034,-0.0268,-0.0184,-0.0099,-0.0004,-0.0003,0.0067,0.0127,0.0127,0.0296,0.0353,0.0452,0.0461,0.043,0.016,0.0161,0.0162,0,-0.0619,-0.0577,-0.0566,-0.055,-0.0511,-0.0537,-0.0537,-0.0515,-0.0501,-0.0491,-0.0472,-0.0424,-0.0331,-0.0297,-0.0065,-0.0086,0.0029,0.0001,0.0198,0.021,0.034,0.0368,0.0304,0.0013,0.0013,0.0013,0.0013,0,-0.0643,-0.0643,-0.0606,-0.0599,-0.0658,-0.0617,-0.0676,-0.067,-0.0649,-0.0565,-0.0552,-0.0421,-0.0375,-0.0252,-0.0149,0.0061,-0.0036,0.0188,0.0214,0.0323,0.0348,0.0343,0.0312,0.0013,0.0013,0.0013,0.0013,0,-0.067,-0.0633,-0.0644,-0.0652,-0.0671,-0.0713,-0.0737,-0.0752,-0.0725,-0.0609,-0.0591,-0.0444,-0.0253,-0.0181,-0.0059,0.0031,0.0202,0.0242,0.0401,0.0447,0.055,0.0512,0.0528,0.0608,0.0358,0.0361,0.0365,0,-0.065,-0.0649,-0.0691,-0.0722,-0.0725,-0.0776,-0.0794,-0.0791,-0.071,-0.0503,-0.0382,-0.0237,0.0083,0.0264,0.0329,0.0426,0.0422,0.0589,0.0579,0.0579,0.0552,0.0523,0.0585,0.0709,0.0714,0.0719,0.0723,0,-0.0634,-0.0657,-0.0676,-0.0753,-0.0788,-0.079,-0.0754,-0.0674,-0.0519,-0.0319,0.0126,0.0369,0.0547,0.0779,0.0783,0.0839,0.0622,0.069,0.0622,0.0776,0.0803,0.0888,0.0698,0.0765,0.0761,0.0758,0.0756,0.0754,-0.0619,-0.0665,-0.0707,-0.0777,-0.0789,-0.0676,-0.0549,-0.0374,-0.0095,0.0445,0.0651,0.1203,0.1228,0.129,0.1204,0.1051,0.0988,0.1054,0.0992,0.0949,0.1078,0.1016,0.1165,0.1163,0.1162,0.116,0.1159,0,-0.0572,-0.0639,-0.0722,-0.0718,-0.0638,-0.0664,-0.041,-0.0132,0.0402,0.0882,0.1452,0.2028,0.1987,0.1761,0.1469,0.1368,0.1297,0.1301,0.1229,0.1268,0.1152,0.1222,0.1474,0.1474,0.1474,0.1474,0.1474,0.1474,-0.0538,-0.061,-0.0677,-0.0555,-0.0485,-0.0178,0.0064,0.0499,0.0917,0.1793,0.2359,0.275,0.2576,0.183,0.1435,0.1407,0.1384,0.1401,0.1334,0.1169,0.1138,0.1108,0.1163,0.1398,0.1398,0.1527,0.1527,0.1527]}],[{"header":{"parameterUnit":"m.s-1","parameterCategory":2,"la1":30.2991,"la2":30.254,"lo1":-89.0895,"lo2":-89.0444,"dy":0.0017,"dx":0.0017,"nx":28,"ny":28,"refTime":"2023-08-01T03:00:00:Z","depth":"2","parameterNumber":2,"parameterNumberName":"U-component_of_CURRENTS"},"data":[0,0,0,0,0,0,0,0,0,0,0,0,0,0,0,0,0,0,0,0,0,0,0,0,0,0,0,0,0,0,0,0,0,0,0,0,0,0,0,0,0,0,0,0,0,0,0,0,0,0,0,0,0,0,0,0,0,0,-0.1891,-0.1891,0,-0.1911,-0.191,-0.191,-0.1979,-0.1981,-0.1984,-0.1986,-0.2114,-0.2116,-0.2117,0,0,0,0,0,0,0,0,0,0,0,0,0,-0.1869,-0.1868,-0.1891,-0.1892,-0.1893,-0.1911,-0.191,-0.191,-0.1978,-0.1981,-0.1984,-0.1987,-0.2114,-0.2116,-0.2117,0,0,0,0,0,0,0,0,0,0,0,0,0,-0.1875,-0.1868,-0.189,-0.1935,-0.194,-0.1911,-0.191,-0.191,-0.1978,-0.1981,-0.1985,-0.1988,-0.2114,-0.2115,-0.2117,-0.2059,0,0,-0.2123,-0.2124,0,0,0,0,0,0,0,0,-0.1874,-0.1874,-0.1928,-0.1932,-0.1938,-0.1953,-0.1951,-0.1968,-0.1977,-0.1955,-0.1986,-0.199,-0.2074,-0.2079,-0.2061,-0.2065,-0.2071,-0.2123,-0.2124,-0.2125,-0.2126,0,0,0,0,0,0,0,-0.1874,-0.1874,-0.189,-0.1929,-0.1935,-0.1941,-0.1945,-0.1953,-0.199,-0.1957,-0.1964,-0.1978,-0.2076,-0.2059,-0.2066,-0.2073,-0.2123,-0.2125,-0.2126,-0.2127,-0.2103,-0.2101,0,0,0,0,0,0,-0.1886,-0.1873,-0.189,-0.1892,-0.1923,-0.1939,-0.1943,-0.1938,-0.1988,-0.2,-0.1976,-0.1982,-0.2054,-0.2063,-0.2071,-0.2055,-0.2125,-0.2127,-0.2128,-0.2105,-0.2103,-0.2101,0,0,0,0,0,0,-0.1885,-0.1886,-0.1889,-0.1891,-0.1893,-0.1937,-0.193,-0.1937,-0.1956,-0.2002,-0.2016,-0.1994,-0.2057,-0.2068,-0.2111,-0.206,-0.2128,-0.213,-0.2107,-0.2104,-0.2102,-0.1993,0,0,0,0,0,0,-0.1884,-0.1885,-0.1886,-0.1891,-0.1894,-0.1885,-0.1927,-0.1935,-0.1962,-0.1971,-0.2021,-0.2035,-0.2061,-0.2108,-0.2113,-0.2064,-0.2131,-0.2109,-0.2106,-0.2103,-0.1999,-0.1987,-0.1977,0,0,0,0,0,-0.1883,-0.1879,-0.1885,-0.1888,-0.1892,-0.1885,-0.1885,-0.1923,-0.196,-0.1955,-0.2005,-0.2035,-0.2089,-0.2109,-0.2115,-0.2065,-0.2111,-0.2107,-0.2103,-0.2004,-0.1989,-0.1977,0,0,0,0,0,0,-0.1883,-0.1886,-0.1893,-0.1894,-0.1895,-0.1901,-0.1906,-0.1929,-0.1956,-0.1979,-0.2028,-0.2043,-0.2045,-0.2078,-0.2098,-0.2047,-0.2097,-0.2094,-0.202,-0.2006,-0.1996,-0.1988,-0.2133,0,0,0,0,0,-0.1877,-0.1872,-0.1874,-0.1877,-0.1873,-0.1887,-0.1894,-0.1914,-0.1941,-0.1957,-0.199,-0.2019,-0.2019,-0.2042,-0.2045,-0.2035,-0.2048,-0.2002,-0.1991,-0.1982,-0.1979,-0.1963,-0.195,-0.2088,-0.2088,-0.2088,0,0,-0.1882,-0.1884,-0.1884,-0.1877,-0.1876,-0.1855,-0.1898,-0.1906,-0.1892,-0.1966,-0.1965,-0.1983,-0.2008,-0.1985,-0.1988,-0.2019,-0.1943,-0.1977,-0.1968,-0.1971,-0.1958,-0.1944,-0.1933,-0.2085,-0.2086,-0.2086,0,0,-0.1856,-0.1881,-0.1844,-0.185,-0.1853,-0.1853,-0.186,-0.1862,-0.1868,-0.1877,-0.19,-0.1896,-0.1932,-0.1905,-0.1906,-0.1839,-0.1878,-0.1844,-0.1792,-0.1776,-0.1764,-0.1755,-0.1727,-0.1716,-0.1847,-0.1847,-0.1847,0,-0.1859,-0.1819,-0.1837,-0.1809,-0.1821,-0.1851,-0.1821,-0.1814,-0.1834,-0.1836,-0.1879,-0.1873,-0.1879,-0.183,-0.1794,-0.1808,-0.1823,-0.1839,-0.1761,-0.1752,-0.1744,-0.1718,-0.1707,-0.1841,-0.1842,-0.1843,-0.1843,0,-0.1803,-0.1779,-0.1769,-0.1737,-0.1743,-0.1737,-0.1737,-0.1738,-0.1767,-0.1769,-0.1751,-0.1751,-0.176,-0.1729,-0.1745,-0.1669,-0.1703,-0.174,-0.1794,-0.1723,-0.1701,-0.1691,-0.1833,-0.1835,-0.1837,-0.1838,0,0,-0.1765,-0.1729,-0.1723,-0.1709,-0.1716,-0.1717,-0.1693,-0.1673,-0.1681,-0.168,-0.1675,-0.1618,-0.1639,-0.1638,-0.163,-0.1599,-0.1517,-0.1647,-0.1649,-0.1617,-0.1487,-0.1384,-0.1365,-0.1562,-0.156,-0.1559,-0.1485,0,-0.1703,-0.1641,-0.1643,-0.1605,-0.1576,-0.1623,-0.1607,-0.1613,-0.1632,-0.1637,-0.1615,-0.1608,-0.1597,-0.1602,-0.156,-0.1546,-0.1494,-0.1534,-0.1563,-0.1563,-0.1479,-0.135,-0.1307,-0.1227,-0.1476,-0.1475,-0.1474,0,-0.1618,-0.1598,-0.1537,-0.1546,-0.1541,-0.1534,-0.1562,-0.1553,-0.1563,-0.1586,-0.158,-0.1596,-0.1525,-0.1545,-0.1464,-0.1507,-0.1475,-0.1458,-0.1456,-0.1395,-0.1442,-0.1344,-0.1202,-0.1458,-0.146,-0.1461,-0.1462,0,-0.156,-0.1524,-0.1481,-0.1491,-0.1497,-0.1495,-0.1511,-0.1534,-0.1538,-0.1551,-0.1573,-0.1537,-0.1518,-0.1484,-0.1436,-0.1465,-0.1367,-0.141,-0.1275,-0.1269,-0.125,-0.1244,-0.1331,-0.1331,-0.1331,-0.1331,-0.1331,0,-0.1485,-0.1451,-0.1458,-0.1443,-0.1435,-0.1463,-0.1461,-0.1486,-0.1511,-0.1503,-0.1535,-0.1511,-0.1507,-0.1465,-0.1429,-0.1305,-0.1357,-0.1223,-0.1225,-0.1206,-0.1197,-0.1433,-0.1446,-0.1328,-0.1329,-0.1329,-0.133,0,-0.1394,-0.1391,-0.136,-0.138,-0.1389,-0.1393,-0.1434,-0.1434,-0.1474,-0.1466,-0.1469,-0.1481,-0.1401,-0.1379,-0.1313,-0.1268,-0.1187,-0.1131,-0.1095,-0.109,-0.1104,-0.1112,-0.0964,-0.0959,-0.0955,-0.0952,-0.0949,0,-0.1333,-0.1299,-0.1323,-0.1315,-0.1315,-0.1332,-0.1333,-0.1396,-0.1389,-0.1423,-0.1393,-0.1354,-0.1274,-0.1146,-0.1075,-0.0972,-0.1037,-0.0871,-0.0879,-0.104,-0.1058,-0.1073,-0.1086,-0.0818,-0.0814,-0.0811,-0.0809,0,-0.123,-0.1242,-0.1228,-0.122,-0.1218,-0.1229,-0.1233,-0.1234,-0.1284,-0.1287,-0.1239,-0.1193,-0.1069,-0.0936,-0.0824,-0.0765,-0.0888,-0.0801,-0.0983,-0.0903,-0.0891,-0.0914,-0.0933,-0.0782,-0.0785,-0.0787,-0.0788,-0.0789,-0.1159,-0.1143,-0.1125,-0.1111,-0.1112,-0.1092,-0.1059,-0.1075,-0.1065,-0.1018,-0.1039,-0.0928,-0.0955,-0.07,-0.0625,-0.0554,-0.0624,-0.062,-0.0634,-0.065,-0.0632,-0.0612,-0.0447,-0.0448,-0.0449,-0.0449,-0.045,0,-0.1062,-0.104,-0.1017,-0.0985,-0.0935,-0.0977,-0.0954,-0.0899,-0.0845,-0.078,-0.0712,-0.0644,-0.0559,-0.0533,-0.039,-0.0359,-0.0402,-0.0323,-0.0425,-0.0451,-0.0474,-0.0452,-0.0217,-0.0216,-0.0215,-0.0214,0,0,-0.0997,-0.0937,-0.0926,-0.0806,-0.0778,-0.0679,-0.0644,-0.0601,-0.0521,-0.0418,-0.0352,-0.0394,-0.0457,-0.0334,-0.0325,-0.0215,-0.0297,-0.0172,-0.0364,-0.0502,-0.0523,-0.0658,-0.0653,0,0,0,0,0]},{"header":{"parameterUnit":"m.s-1","parameterCategory":2,"la1":30.2991,"la2":30.254,"lo1":-89.0895,"lo2":-89.0444,"dy":0.0017,"dx":0.0017,"nx":28,"ny":28,"refTime":"2023-08-01T03:00:00:Z","depth":"2","parameterNumber":3,"parameterNumberName":"V-component_of_CURRENTS"},"data":[0,0,0,0,0,0,0,0,0,0,0,0,0,0,0,0,0,0,0,0,0,0,0,0,0,0,0,0,0,0,0,0,0,0,0,0,0,0,0,0,0,0,0,0,0,0,0,0,0,0,0,0,0,0,0,0,0,0,-0.0756,-0.0756,0,-0.066,-0.0658,-0.0656,-0.0572,-0.0572,-0.0572,-0.0572,-0.0341,-0.0335,-0.0329,0,0,0,0,0,0,0,0,0,0,0,0,0,-0.0773,-0.0773,-0.0756,-0.0756,-0.0756,-0.066,-0.0658,-0.0655,-0.0572,-0.0572,-0.0572,-0.0572,-0.0343,-0.0336,-0.0328,0,0,0,0,0,0,0,0,0,0,0,0,0,-0.072,-0.0773,-0.0756,-0.0711,-0.0706,-0.066,-0.0657,-0.0655,-0.0572,-0.0572,-0.0572,-0.0572,-0.0345,-0.0336,-0.0327,-0.0269,0,0,-0.0299,-0.0295,0,0,0,0,0,0,0,0,-0.0723,-0.0718,-0.0718,-0.0714,-0.0709,-0.0637,-0.0579,-0.0522,-0.0572,-0.0612,-0.0572,-0.0572,-0.0434,-0.0418,-0.0386,-0.0258,-0.0248,-0.0298,-0.0292,-0.0288,-0.0286,0,0,0,0,0,0,0,-0.0727,-0.0721,-0.0707,-0.0718,-0.0712,-0.0663,-0.0655,-0.0567,-0.0513,-0.0608,-0.0605,-0.0611,-0.043,-0.0395,-0.038,-0.0244,-0.0298,-0.029,-0.0284,-0.0281,-0.011,-0.0111,0,0,0,0,0,0,-0.0766,-0.0725,-0.071,-0.0705,-0.0728,-0.0664,-0.0654,-0.0651,-0.0517,-0.0501,-0.0611,-0.0608,-0.0411,-0.0391,-0.0371,-0.0301,-0.0288,-0.028,-0.0274,-0.0109,-0.011,-0.0111,0,0,0,0,0,0,-0.0766,-0.0765,-0.0714,-0.0722,-0.0714,-0.0665,-0.0661,-0.065,-0.0608,-0.0523,-0.0501,-0.0583,-0.041,-0.0384,-0.0302,-0.0291,-0.0275,-0.0267,-0.0108,-0.0109,-0.0111,-0.0155,0,0,0,0,0,0,-0.0767,-0.0765,-0.0771,-0.0725,-0.0715,-0.0683,-0.0662,-0.0648,-0.0618,-0.0612,-0.0491,-0.047,-0.0409,-0.0317,-0.0293,-0.0278,-0.026,-0.0106,-0.0108,-0.011,-0.0152,-0.0158,-0.0163,0,0,0,0,0,-0.0767,-0.0772,-0.0772,-0.0771,-0.0727,-0.0684,-0.0672,-0.0631,-0.0617,-0.0593,-0.0528,-0.0474,-0.0314,-0.0309,-0.0281,-0.0263,-0.0105,-0.0108,-0.011,-0.015,-0.0157,-0.0162,0,0,0,0,0,0,-0.0779,-0.0764,-0.0762,-0.0762,-0.0731,-0.0674,-0.0658,-0.063,-0.0558,-0.0552,-0.0463,-0.0437,-0.0374,-0.0317,-0.0315,-0.0229,-0.0209,-0.0206,-0.0249,-0.0254,-0.026,-0.0248,-0.0252,0,0,0,0,0,-0.0792,-0.0793,-0.0765,-0.0767,-0.0752,-0.0704,-0.0683,-0.0656,-0.0597,-0.0565,-0.0493,-0.0424,-0.0363,-0.0308,-0.0252,-0.0174,-0.0132,-0.0157,-0.0162,-0.0167,-0.0144,-0.0087,-0.0084,-0.0119,-0.0119,-0.0119,0,0,-0.0807,-0.0795,-0.0801,-0.0771,-0.0741,-0.0708,-0.0687,-0.0656,-0.0624,-0.0549,-0.048,-0.0437,-0.0354,-0.0291,-0.0257,-0.0233,-0.0143,-0.017,-0.0174,-0.0148,-0.0089,-0.0085,-0.0082,-0.0121,-0.012,-0.012,0,0,-0.0815,-0.0816,-0.0809,-0.0783,-0.0752,-0.0717,-0.0711,-0.0656,-0.0623,-0.0565,-0.052,-0.0468,-0.0363,-0.0303,-0.0258,-0.0252,-0.0187,-0.0249,-0.0233,-0.0179,-0.0175,-0.017,-0.0139,-0.0131,-0.0233,-0.0233,-0.0233,0,-0.083,-0.0815,-0.0799,-0.0775,-0.0754,-0.0721,-0.0691,-0.0652,-0.0582,-0.0546,-0.0554,-0.0425,-0.0366,-0.0268,-0.0281,-0.0257,-0.0226,-0.021,-0.0183,-0.0177,-0.0172,-0.014,-0.0131,-0.0235,-0.0235,-0.0235,-0.0235,0,-0.0823,-0.0808,-0.0798,-0.0759,-0.0732,-0.0704,-0.0661,-0.0627,-0.06,-0.0558,-0.0487,-0.0425,-0.0341,-0.0334,-0.0296,-0.0228,-0.0221,-0.021,-0.016,-0.017,-0.0138,-0.0127,-0.0239,-0.0238,-0.0237,-0.0237,0,0,-0.0853,-0.0803,-0.0798,-0.0776,-0.072,-0.0695,-0.0646,-0.0579,-0.0542,-0.0497,-0.0437,-0.0362,-0.0339,-0.0289,-0.0248,-0.0199,-0.0157,-0.0187,-0.0183,-0.0145,-0.005,-0.0022,-0.0008,-0.0139,-0.0136,-0.0135,-0.0053,0,-0.0843,-0.0799,-0.0773,-0.0729,-0.0698,-0.0656,-0.0614,-0.0557,-0.0512,-0.0453,-0.0389,-0.0332,-0.0317,-0.0291,-0.0236,-0.0177,-0.0127,-0.0181,-0.0054,-0.0051,-0.0014,0.0007,-0.0037,0.0036,-0.0042,-0.004,-0.0039,0,-0.083,-0.0802,-0.0756,-0.0704,-0.0688,-0.0663,-0.0588,-0.0548,-0.0459,-0.0427,-0.0352,-0.0309,-0.022,-0.0233,-0.0104,-0.014,-0.0093,-0.0056,-0.0052,0.0009,-0.0,0.0038,0.0059,-0.0021,-0.0022,-0.0023,-0.0025,0,-0.0835,-0.0785,-0.0749,-0.0731,-0.0671,-0.0647,-0.0616,-0.0538,-0.0506,-0.0411,-0.0386,-0.027,-0.0228,-0.0142,-0.0056,-0.0081,0.0074,0.0048,0.0122,0.0123,0.0132,0.0131,0.0142,0.0142,0.0141,0.0141,0.0141,0,-0.0816,-0.079,-0.0757,-0.0737,-0.0715,-0.0666,-0.063,-0.0581,-0.0514,-0.0482,-0.0382,-0.0324,-0.0206,-0.0104,-0.0034,0.0092,0.0099,0.0144,0.0161,0.011,0.0106,0.0098,0.0092,0.0144,0.0143,0.0143,0.0142,0,-0.0812,-0.0784,-0.0757,-0.0718,-0.0714,-0.0702,-0.0673,-0.065,-0.0578,-0.0535,-0.0511,-0.0359,-0.0209,-0.008,0.0071,0.0116,0.0231,0.0273,0.0199,0.0206,0.0229,0.0219,0.035,0.0352,0.0354,0.0355,0.0356,0,-0.0795,-0.0779,-0.0768,-0.0777,-0.0764,-0.0751,-0.0748,-0.0691,-0.0668,-0.0555,-0.0534,-0.0366,-0.0228,0.0031,0.0179,0.0342,0.0319,0.0346,0.0297,0.0255,0.0258,0.0245,0.0233,0.0271,0.0272,0.0272,0.0272,0,-0.0777,-0.0783,-0.0773,-0.0801,-0.0814,-0.0823,-0.0813,-0.0812,-0.0747,-0.0682,-0.0545,-0.0418,-0.0135,0.008,0.029,0.0353,0.0318,0.0358,0.0364,0.0228,0.0189,0.0188,0.0178,0.0275,0.0275,0.0275,0.0275,0.0275,-0.0778,-0.0789,-0.0797,-0.0826,-0.0852,-0.0887,-0.0904,-0.0864,-0.0822,-0.0668,-0.0542,-0.0269,-0.0131,0.0258,0.0339,0.0422,0.0417,0.0374,0.037,0.0366,0.0345,0.0312,0.0416,0.0416,0.0417,0.0417,0.0417,0,-0.0775,-0.0795,-0.0823,-0.0862,-0.0905,-0.091,-0.0939,-0.0914,-0.0857,-0.06,-0.0398,-0.0149,0.0077,0.0258,0.0404,0.0434,0.0393,0.0403,0.0329,0.0326,0.0323,0.0296,0.0356,0.0357,0.0357,0.0357,0,0,-0.0777,-0.0799,-0.0821,-0.0893,-0.0929,-0.0992,-0.1017,-0.0937,-0.0766,-0.0477,-0.0202,0.0085,0.021,0.0285,0.0297,0.0357,0.0327,0.0341,0.038,0.0283,0.028,0.029,0.0244,0,0,0,0,0]}],[{"header":{"parameterUnit":"m.s-1","parameterCategory":2,"la1":30.2991,"la2":30.254,"lo1":-89.0895,"lo2":-89.0444,"dy":0.0017,"dx":0.0017,"nx":28,"ny":28,"refTime":"2023-08-01T03:00:00:Z","depth":"4","parameterNumber":2,"parameterNumberName":"U-component_of_CURRENTS"},"data":[0,0,0,0,0,0,0,0,0,0,0,0,0,0,0,0,0,0,0,0,0,0,0,0,0,0,0,0,0,0,0,0,0,0,0,0,0,0,0,0,0,0,0,0,0,0,0,0,0,0,0,0,0,0,0,0,0,0,-0.1004,-0.1004,0,-0.0998,-0.0998,-0.0998,-0.0985,-0.0984,-0.0984,-0.0984,-0.1001,-0.1002,-0.1002,0,0,0,0,0,0,0,0,0,0,0,0,0,-0.1004,-0.1004,-0.1004,-0.1004,-0.1004,-0.0998,-0.0998,-0.0998,-0.0985,-0.0984,-0.0984,-0.0984,-0.1001,-0.1002,-0.1002,0,0,0,0,0,0,0,0,0,0,0,0,0,-0.1001,-0.1004,-0.1004,-0.0997,-0.0996,-0.0998,-0.0998,-0.0998,-0.0985,-0.0984,-0.0984,-0.0984,-0.1001,-0.1002,-0.1002,-0.1015,0,0,-0.1005,-0.1006,0,0,0,0,0,0,0,0,-0.1001,-0.1001,-0.0998,-0.0997,-0.0997,-0.0992,-0.1004,-0.1005,-0.0985,-0.0988,-0.0984,-0.0984,-0.1001,-0.1002,-0.1,-0.1016,-0.1016,-0.1006,-0.1006,-0.1007,-0.1007,0,0,0,0,0,0,0,-0.1002,-0.1001,-0.1001,-0.0998,-0.0997,-0.0995,-0.0994,-0.1004,-0.0996,-0.0988,-0.0987,-0.0988,-0.1001,-0.0999,-0.1001,-0.1017,-0.1006,-0.1006,-0.1007,-0.1007,-0.1083,-0.1085,0,0,0,0,0,0,-0.1004,-0.1002,-0.1001,-0.1001,-0.0999,-0.0995,-0.0994,-0.0994,-0.0996,-0.0996,-0.0988,-0.0987,-0.0998,-0.0999,-0.1001,-0.1039,-0.1007,-0.1007,-0.1008,-0.1082,-0.1084,-0.1085,0,0,0,0,0,0,-0.1004,-0.1004,-0.1001,-0.1002,-0.1001,-0.0995,-0.0995,-0.0994,-0.1009,-0.0996,-0.0996,-0.1006,-0.0998,-0.1,-0.1019,-0.1039,-0.1008,-0.1009,-0.108,-0.1082,-0.1084,-0.1101,0,0,0,0,0,0,-0.1004,-0.1004,-0.1016,-0.1002,-0.1001,-0.1014,-0.0995,-0.0994,-0.1009,-0.1008,-0.1011,-0.1011,-0.0997,-0.1017,-0.102,-0.104,-0.101,-0.1078,-0.1081,-0.1084,-0.1099,-0.1104,-0.1108,0,0,0,0,0,-0.1004,-0.1008,-0.1017,-0.1017,-0.1014,-0.1014,-0.1014,-0.1008,-0.101,-0.1021,-0.102,-0.1012,-0.1037,-0.1019,-0.1022,-0.1042,-0.1077,-0.108,-0.1083,-0.1097,-0.1103,-0.1108,0,0,0,0,0,0,-0.101,-0.1007,-0.1016,-0.1019,-0.1027,-0.1013,-0.1021,-0.1024,-0.1032,-0.1035,-0.1025,-0.1025,-0.1049,-0.1051,-0.1032,-0.1075,-0.1059,-0.1063,-0.1068,-0.1074,-0.1078,-0.1079,-0.101,0,0,0,0,0,-0.1021,-0.1024,-0.1026,-0.1032,-0.1039,-0.104,-0.1044,-0.1043,-0.1043,-0.1046,-0.1053,-0.106,-0.1063,-0.1072,-0.1077,-0.1102,-0.1083,-0.1122,-0.1126,-0.113,-0.1134,-0.1125,-0.1128,-0.1096,-0.1096,-0.1096,0,0,-0.1028,-0.1024,-0.103,-0.1035,-0.104,-0.1047,-0.1041,-0.1052,-0.1062,-0.1048,-0.1074,-0.1077,-0.1074,-0.1093,-0.1106,-0.1097,-0.1126,-0.1134,-0.1136,-0.1139,-0.1129,-0.1132,-0.1134,-0.1098,-0.1097,-0.1097,0,0,-0.1029,-0.1041,-0.1046,-0.1053,-0.1065,-0.1065,-0.1076,-0.1084,-0.1095,-0.1115,-0.1108,-0.1123,-0.1139,-0.1136,-0.1135,-0.1174,-0.1149,-0.1188,-0.1211,-0.1202,-0.1204,-0.1205,-0.1164,-0.1162,-0.1191,-0.1191,-0.1192,0,-0.1042,-0.1044,-0.105,-0.1054,-0.1067,-0.1077,-0.1092,-0.1099,-0.1115,-0.1136,-0.1127,-0.1157,-0.1154,-0.117,-0.1179,-0.1182,-0.1164,-0.1184,-0.1205,-0.1206,-0.1207,-0.1165,-0.1163,-0.1193,-0.1193,-0.1192,-0.1192,0,-0.1038,-0.1054,-0.1057,-0.1069,-0.1085,-0.1098,-0.1113,-0.1142,-0.1159,-0.1168,-0.1203,-0.1195,-0.1214,-0.1218,-0.1204,-0.1226,-0.1204,-0.1206,-0.1184,-0.1211,-0.1165,-0.1162,-0.1194,-0.1194,-0.1194,-0.1193,0,0,-0.1035,-0.1053,-0.1059,-0.1078,-0.1099,-0.1111,-0.1142,-0.1176,-0.1204,-0.1221,-0.1251,-0.1257,-0.1266,-0.1266,-0.1262,-0.1253,-0.1233,-0.1238,-0.1237,-0.1183,-0.1191,-0.1096,-0.1083,-0.1239,-0.1239,-0.124,-0.1147,0,-0.1039,-0.1053,-0.1066,-0.1099,-0.1114,-0.1146,-0.1175,-0.121,-0.1234,-0.1265,-0.127,-0.1288,-0.1279,-0.1287,-0.1281,-0.1246,-0.123,-0.1257,-0.1185,-0.1183,-0.1084,-0.1078,-0.124,-0.1144,-0.1144,-0.1143,-0.1143,0,-0.1029,-0.1046,-0.1073,-0.1127,-0.1141,-0.1162,-0.1227,-0.1254,-0.1295,-0.1316,-0.1339,-0.1338,-0.1334,-0.132,-0.1271,-0.1289,-0.1248,-0.1214,-0.121,-0.1115,-0.1082,-0.1119,-0.1136,-0.1137,-0.1137,-0.1138,-0.1138,0,-0.101,-0.1055,-0.108,-0.1094,-0.1148,-0.1183,-0.1221,-0.1273,-0.1302,-0.1344,-0.1352,-0.1364,-0.1344,-0.1317,-0.1244,-0.1263,-0.1167,-0.1183,-0.1057,-0.1049,-0.1154,-0.1154,-0.1153,-0.1153,-0.1153,-0.1153,-0.1154,0,-0.099,-0.1018,-0.1076,-0.1085,-0.1139,-0.1184,-0.1237,-0.1281,-0.1326,-0.1331,-0.1371,-0.1351,-0.1343,-0.1286,-0.1243,-0.1117,-0.1163,-0.105,-0.1021,-0.1161,-0.1163,-0.1149,-0.115,-0.115,-0.115,-0.1151,-0.1152,0,-0.0948,-0.0982,-0.102,-0.1093,-0.1121,-0.1158,-0.1234,-0.1257,-0.1312,-0.1312,-0.1319,-0.1327,-0.1248,-0.1213,-0.1138,-0.1082,-0.0998,-0.0947,-0.1068,-0.1049,-0.0887,-0.089,-0.0802,-0.0798,-0.0795,-0.0792,-0.079,0,-0.0919,-0.093,-0.1012,-0.1033,-0.1064,-0.1126,-0.1155,-0.1238,-0.1241,-0.1267,-0.1238,-0.1202,-0.1183,-0.0993,-0.0986,-0.0886,-0.0877,-0.0828,-0.0893,-0.0871,-0.0852,-0.0861,-0.0869,-0.0784,-0.0783,-0.0782,-0.0781,0,-0.0868,-0.0902,-0.0928,-0.097,-0.1007,-0.1048,-0.1086,-0.1085,-0.1139,-0.1199,-0.112,-0.107,-0.0975,-0.0914,-0.0834,-0.0775,-0.0862,-0.0792,-0.08,-0.0861,-0.0848,-0.0835,-0.0846,-0.0769,-0.0771,-0.0772,-0.0773,0,-0.0827,-0.0835,-0.0863,-0.0892,-0.0933,-0.093,-0.0978,-0.0963,-0.0986,-0.1016,-0.0978,-0.0943,-0.0954,-0.0851,-0.0778,-0.0709,-0.0707,-0.0687,-0.0701,-0.0714,-0.0728,-0.0701,-0.054,0,0,0,0,0,-0.078,-0.0766,-0.0782,-0.0797,-0.0828,-0.0846,-0.0902,-0.0942,-0.0991,-0.0904,-0.0943,-0.0855,-0.0759,-0.0751,-0.0656,-0.0727,-0.0705,-0.0613,-0.069,-0.0703,-0.0717,-0.0741,0,0,0,0,0,0,-0.074,-0.0748,-0.0747,-0.0697,-0.0681,-0.0702,-0.073,-0.0772,-0.0735,-0.079,-0.0745,-0.0785,-0.0707,-0.0781,-0.0629,-0.0623,-0.0648,-0.0606,-0.0603,-0.0695,-0.0708,-0.0719,-0.0748,0,0,0,0,0]},{"header":{"parameterUnit":"m.s-1","parameterCategory":2,"la1":30.2991,"la2":30.254,"lo1":-89.0895,"lo2":-89.0444,"dy":0.0017,"dx":0.0017,"nx":28,"ny":28,"refTime":"2023-08-01T03:00:00:Z","depth":"4","parameterNumber":3,"parameterNumberName":"V-component_of_CURRENTS"},"data":[0,0,0,0,0,0,0,0,0,0,0,0,0,0,0,0,0,0,0,0,0,0,0,0,0,0,0,0,0,0,0,0,0,0,0,0,0,0,0,0,0,0,0,0,0,0,0,0,0,0,0,0,0,0,0,0,0,0,-0.0561,-0.0562,0,-0.0553,-0.0552,-0.0552,-0.0556,-0.0557,-0.0557,-0.0558,-0.0515,-0.0513,-0.0512,0,0,0,0,0,0,0,0,0,0,0,0,0,-0.0542,-0.0542,-0.0561,-0.0562,-0.0562,-0.0553,-0.0552,-0.0552,-0.0556,-0.0557,-0.0558,-0.0558,-0.0516,-0.0514,-0.0512,0,0,0,0,0,0,0,0,0,0,0,0,0,-0.054,-0.0542,-0.0561,-0.0566,-0.0567,-0.0553,-0.0552,-0.0551,-0.0556,-0.0557,-0.0558,-0.0559,-0.0516,-0.0514,-0.0511,-0.0477,0,0,-0.0504,-0.0502,0,0,0,0,0,0,0,0,-0.054,-0.054,-0.0565,-0.0566,-0.0566,-0.056,-0.053,-0.0526,-0.0556,-0.0556,-0.0558,-0.0559,-0.0529,-0.0525,-0.0516,-0.0475,-0.0474,-0.0503,-0.0502,-0.0501,-0.05,0,0,0,0,0,0,0,-0.054,-0.054,-0.0554,-0.0565,-0.0566,-0.0555,-0.0556,-0.0529,-0.0534,-0.0556,-0.0557,-0.0562,-0.0529,-0.0519,-0.0515,-0.0473,-0.0503,-0.0501,-0.05,-0.0499,-0.0425,-0.0425,0,0,0,0,0,0,-0.055,-0.054,-0.0554,-0.0554,-0.056,-0.0555,-0.0556,-0.0558,-0.0535,-0.0533,-0.0561,-0.0563,-0.0523,-0.0518,-0.0514,-0.0481,-0.0501,-0.0498,-0.0497,-0.0426,-0.0425,-0.0425,0,0,0,0,0,0,-0.055,-0.0551,-0.0555,-0.055,-0.0551,-0.0555,-0.0557,-0.0557,-0.0558,-0.054,-0.0538,-0.0565,-0.0523,-0.0518,-0.0498,-0.048,-0.0497,-0.0495,-0.0426,-0.0426,-0.0425,-0.0411,0,0,0,0,0,0,-0.0549,-0.0551,-0.056,-0.0551,-0.0551,-0.0549,-0.0557,-0.0557,-0.0562,-0.0563,-0.0542,-0.0538,-0.0524,-0.0502,-0.0496,-0.0476,-0.0493,-0.0427,-0.0426,-0.0425,-0.0412,-0.041,-0.0408,0,0,0,0,0,-0.0548,-0.0556,-0.056,-0.0562,-0.0562,-0.0549,-0.0547,-0.0551,-0.0561,-0.0556,-0.0547,-0.0539,-0.0493,-0.0499,-0.0492,-0.0472,-0.0427,-0.0426,-0.0425,-0.0412,-0.041,-0.0408,0,0,0,0,0,0,-0.0556,-0.0557,-0.0562,-0.0571,-0.0563,-0.0552,-0.0554,-0.0554,-0.0542,-0.055,-0.0532,-0.0526,-0.0505,-0.0492,-0.05,-0.045,-0.0459,-0.0457,-0.0452,-0.0449,-0.0447,-0.0434,-0.0491,0,0,0,0,0,-0.0561,-0.0568,-0.0561,-0.057,-0.0567,-0.0561,-0.056,-0.0561,-0.0551,-0.0548,-0.0529,-0.0512,-0.0491,-0.0476,-0.0458,-0.0425,-0.0397,-0.0409,-0.0407,-0.0405,-0.039,-0.0322,-0.0312,-0.0422,-0.0422,-0.0422,0,0,-0.0573,-0.0572,-0.0579,-0.0573,-0.0568,-0.0555,-0.0561,-0.0562,-0.0549,-0.0543,-0.0518,-0.0507,-0.0485,-0.0453,-0.0441,-0.044,-0.0365,-0.0404,-0.0403,-0.0388,-0.032,-0.0309,-0.0299,-0.0421,-0.0421,-0.0421,0,0,-0.0582,-0.059,-0.0591,-0.058,-0.0576,-0.0565,-0.0567,-0.0552,-0.0544,-0.0522,-0.0516,-0.0488,-0.046,-0.0427,-0.0411,-0.0385,-0.0363,-0.039,-0.0357,-0.0292,-0.0282,-0.0273,-0.0245,-0.0233,-0.0381,-0.0381,-0.0381,0,-0.0595,-0.0592,-0.059,-0.0577,-0.0571,-0.0568,-0.0557,-0.0542,-0.0522,-0.0501,-0.0517,-0.0451,-0.044,-0.0378,-0.0378,-0.0376,-0.0353,-0.0368,-0.0288,-0.0278,-0.0268,-0.0241,-0.0228,-0.038,-0.038,-0.038,-0.038,0,-0.0593,-0.0591,-0.0589,-0.0571,-0.056,-0.0554,-0.0532,-0.0515,-0.051,-0.0484,-0.0435,-0.041,-0.0365,-0.0361,-0.0364,-0.0291,-0.0303,-0.0299,-0.029,-0.0256,-0.0231,-0.0217,-0.0379,-0.0379,-0.038,-0.038,0,0,-0.0618,-0.0593,-0.0593,-0.0584,-0.0558,-0.0549,-0.0518,-0.0478,-0.045,-0.042,-0.0366,-0.033,-0.0312,-0.0292,-0.028,-0.0227,-0.0158,-0.0239,-0.0236,-0.0206,-0.0038,-0.0077,-0.0067,-0.014,-0.0137,-0.0135,-0.0055,0,-0.0616,-0.0597,-0.058,-0.0563,-0.055,-0.0527,-0.0496,-0.046,-0.0424,-0.0368,-0.032,-0.0275,-0.0286,-0.0269,-0.0211,-0.0174,-0.0119,-0.0182,-0.008,-0.0077,-0.011,-0.005,-0.0126,-0.0045,-0.0042,-0.0039,-0.0038,0,-0.0612,-0.0601,-0.0583,-0.0554,-0.0546,-0.0534,-0.0481,-0.0452,-0.0368,-0.0338,-0.0266,-0.0231,-0.0151,-0.0171,-0.0055,-0.0097,-0.0064,-0.0034,-0.003,-0.0056,-0.0089,-0.0081,-0.0013,-0.0015,-0.0017,-0.0019,-0.002,0,-0.0624,-0.0602,-0.059,-0.0581,-0.0544,-0.0533,-0.0513,-0.0444,-0.0413,-0.0314,-0.0277,-0.0171,-0.0133,-0.0049,-0.0006,-0.002,0.0112,0.0104,0.0108,0.0103,0.0106,0.0095,0.0205,0.0205,0.0205,0.0204,0.0204,0,-0.0615,-0.061,-0.0603,-0.0594,-0.0589,-0.0554,-0.0526,-0.0483,-0.0409,-0.0367,-0.0269,-0.0222,-0.0101,-0.0022,0.0028,0.0102,0.0145,0.0133,0.0139,0.0104,0.0093,0.0114,0.0102,0.0207,0.0207,0.0206,0.0206,0,-0.0618,-0.061,-0.0608,-0.0592,-0.0595,-0.0594,-0.0567,-0.0539,-0.0464,-0.0402,-0.0374,-0.0248,-0.0144,-0.0033,0.0095,0.0127,0.0211,0.0223,0.0162,0.0159,0.015,0.0138,0.0261,0.0261,0.026,0.026,0.026,0,-0.0608,-0.0609,-0.0627,-0.0643,-0.0643,-0.0641,-0.064,-0.058,-0.0547,-0.0436,-0.0409,-0.0284,-0.0202,-0.0029,0.007,0.0206,0.0206,0.0248,0.0225,0.0171,0.0165,0.0153,0.0142,0.0259,0.0259,0.0259,0.0259,0,-0.0599,-0.0621,-0.0625,-0.0668,-0.0688,-0.0696,-0.0687,-0.0664,-0.0587,-0.053,-0.042,-0.0307,-0.0186,-0.0046,0.0063,0.0146,0.023,0.0245,0.0246,0.0226,0.0171,0.0162,0.0151,0.0258,0.0258,0.0259,0.0259,0,-0.0606,-0.0624,-0.0651,-0.0683,-0.0721,-0.0733,-0.0722,-0.0676,-0.0631,-0.0501,-0.0485,-0.0326,-0.0232,-0.008,0.0008,0.0108,0.0126,0.0143,0.015,0.0153,0.0089,0.0002,0.0065,0,0,0,0,0,-0.0604,-0.0628,-0.0663,-0.0701,-0.0742,-0.0759,-0.0744,-0.0719,-0.0656,-0.0584,-0.052,-0.0406,-0.0228,-0.0146,-0.005,-0.0017,0.0125,0.0094,0.0144,0.0253,0.0254,0.0195,0,0,0,0,0,0,-0.0607,-0.0641,-0.0659,-0.071,-0.0741,-0.0776,-0.0767,-0.0725,-0.0665,-0.0589,-0.0487,-0.0413,-0.0236,-0.0285,-0.0059,-0.0028,0.001,0.0186,0.0187,0.0252,0.0253,0.0254,0.0193,0,0,0,0,0]}]]